TimeCDT,TemperatureF,Dew PointF,Humidity,Sea Level PressureIn,VisibilityMPH,Wind Direction,Wind SpeedMPH,Gust SpeedMPH,PrecipitationIn,Events,Conditions,WindDirDegrees,DateUTC
12:53 AM,53.1,48.9,86,30.22,10.0,Calm,Calm,-,N/A,,Clear,0,2013-09-06 05:53:00
1:53 AM,53.1,48.9,86,30.22,10.0,South,3.5,-,N/A,,Clear,190,2013-09-06 06:53:00
2:53 AM,52.0,50.0,93,30.21,10.0,Calm,Calm,-,N/A,,Clear,0,2013-09-06 07:53:00
3:53 AM,54.0,50.0,86,30.19,10.0,SW,4.6,-,N/A,,Clear,220,2013-09-06 08:53:00
4:53 AM,54.0,48.9,83,30.19,10.0,SW,8.1,-,N/A,,Clear,220,2013-09-06 09:53:00
5:53 AM,54.0,48.0,80,30.19,10.0,SW,8.1,-,N/A,,Mostly Cloudy,220,2013-09-06 10:53:00
6:24 AM,53.6,48.2,82,30.18,10.0,SSW,9.2,-,N/A,,Scattered Clouds,210,2013-09-06 11:24:00
6:53 AM,54.0,48.9,83,30.19,10.0,SW,8.1,17.3,N/A,,Partly Cloudy,220,2013-09-06 11:53:00
7:26 AM,55.4,50.0,82,30.18,10.0,SSW,6.9,-,N/A,,Mostly Cloudy,210,2013-09-06 12:26:00
7:53 AM,57.0,51.1,81,30.18,10.0,SW,6.9,-,N/A,,Overcast,220,2013-09-06 12:53:00
8:53 AM,62.1,53.1,72,30.17,10.0,SW,6.9,-,N/A,,Mostly Cloudy,230,2013-09-06 13:53:00
9:40 AM,64.4,55.4,73,30.15,10.0,SW,9.2,-,N/A,,Partly Cloudy,220,2013-09-06 14:40:00
9:53 AM,64.9,55.9,73,30.15,10.0,SSW,5.8,-,N/A,,Partly Cloudy,210,2013-09-06 14:53:00
10:12 AM,64.4,55.4,73,30.15,10.0,SSW,6.9,-,N/A,,Mostly Cloudy,210,2013-09-06 15:12:00
10:30 AM,66.2,57.2,73,30.14,10.0,SSW,5.8,-,N/A,,Scattered Clouds,210,2013-09-06 15:30:00
10:53 AM,69.1,57.9,68,30.13,10.0,South,9.2,-,N/A,,Clear,190,2013-09-06 15:53:00
11:53 AM,73.0,61.0,66,30.10,10.0,SW,9.2,-,N/A,,Clear,220,2013-09-06 16:53:00
12:53 PM,75.9,62.1,62,30.07,10.0,SW,9.2,-,N/A,,Mostly Cloudy,230,2013-09-06 17:53:00
1:53 PM,77.0,64.0,64,30.05,10.0,SW,8.1,-,N/A,,Overcast,220,2013-09-06 18:53:00
2:53 PM,78.1,64.0,62,30.02,10.0,SSW,8.1,16.1,N/A,,Overcast,210,2013-09-06 19:53:00
3:53 PM,80.1,64.9,60,30.01,10.0,SSW,10.4,-,N/A,,Scattered Clouds,200,2013-09-06 20:53:00
4:53 PM,79.0,64.9,62,29.99,10.0,SSW,9.2,-,N/A,,Mostly Cloudy,210,2013-09-06 21:53:00
5:53 PM,78.1,64.9,64,29.97,10.0,SSW,6.9,-,0.00,,Overcast,200,2013-09-06 22:53:00
6:53 PM,75.0,64.9,71,29.96,10.0,South,6.9,-,N/A,,Scattered Clouds,190,2013-09-06 23:53:00
7:53 PM,73.0,64.9,76,29.96,10.0,SW,3.5,-,N/A,,Mostly Cloudy,220,2013-09-07 00:53:00
8:53 PM,72.0,64.9,78,29.96,10.0,SW,5.8,-,N/A,,Mostly Cloudy,220,2013-09-07 01:53:00
9:53 PM,72.0,64.9,78,29.96,10.0,WSW,6.9,-,0.00,,Scattered Clouds,240,2013-09-07 02:53:00
10:53 PM,72.0,64.0,76,29.96,10.0,SW,6.9,-,N/A,,Partly Cloudy,230,2013-09-07 03:53:00
11:53 PM,71.1,64.0,78,29.94,10.0,SW,6.9,-,N/A,,Clear,230,2013-09-07 04:53:00